Вернуться в каталог

STARLINK-4376

АктивенСвязьSSO
NORAD 53216·PAYLOAD·🇺🇸 United States

Запущен Jul 22, 2022 с Vandenberg Space Force Base

Loading…

Ближайшие Пролёты (ближайшие 24 часа)

TLE

СвежийSource: CelesTrak SupGP

Эпоха: Sep 14, 2026, 21:51 UTC

1 53216C 22084AD  26257.91090278 -.00038950  00000+0 -12095-2 0  2573
2 53216  97.2843 312.8143 0001400  90.4271 354.0088 15.33448684    17

Отслеживайте STARLINK-4376 в реальном времени с AllMySat

Download on the App Store